SCP
0 0 0 0 0 0 0 -0 0 0 0 0 0 0 0 0 0 0 0 0 0 0 0 0 0 0 0 0 0 0 0 0 0 0 0 0 0 0 0 0 0 0 0 0 0 0 0 0 0
0 0 0 0 0 0 0 -0 0 0 0 0 0 0 0 0 0 0 0 0 0 0 0 0 0 0 0 0 0 0 0 0 0 0 0 0 0 0 0 0 0 0 0 0 0 0 0 0 0
0 0 0 0 0 0 0 0 0 0 0 0 0 0 0 0 0 0 0 0 0 0 0 0 0 0 0 0 0 0 0 0 0 0 0 0 0 0 0 0 0 0 0 0 0 0 0 0 0
0 0 0 0 0 0 0 0 0 0 0 0 0 0 0 0 0 0 0 0 0 0 0 0 0 0 0 0 0 0 0 0 0 0 0 0 0 0 0 0 0 0 0 0 0 0 1 1 1
0 0 0 0 0 0 0 0 0 0 0 0 0 0 0 0 0 0 0 0 0 0 0 0 0 0 0 0 0 0 0 0 0 0 0 0 0 0 0 0 0 0 0 0 1 0 0 0 1
0 0 0 0 0 0 0 0 0 0 0 0 0 0 0 0 0 0 0 0 0 0 0 0 0 0 0 0 0 0 0 0 0 0 0 0 0 0 0 0 0 0 0 0 0 0 0 0 1
0 0 0 0 0 0 0 0 0 0 0 0 0 0 0 0 0 0 0 0 0 0 0 0 0 0 0 0 0 0 0 0 0 0 0 0 0 0 0 0 0 0 0 0 0 0 0 0 0
0 0 0 0 0 0 0 0 0 0 0 0 0 0 0 0 0 0 0 0 0 0 0 0 0 0 0 0 0 0 0 0 0 0 0 0 0 0 0 0 0 0 0 0 0 0 0 0 0
0 0 0 0 0 0 0 0 0 0 0 0 0 0 0 0 0 0 0 0 0 0 0 0 0 0 0 0 0 0 0 0 0 0 0 0 0 0 0 0 0 0 0 0 0 0 0 0 0
0 0 0 0 0 0 0 0 0 0 0 0 0 0 0 0 0 0 0 0 0 0 0 0 0 0 0 0 0 0 0 0 0 0 0 0 0 0 0 0 0 0 0 0 0 0 0 0 0
0 0 0 0 0 0 0 0 0 0 0 0 0 0 0 0 0 0 0 0 0 0 0 0 0 0 0 0 0 0 0 0 0 0 0 0 0 0 0 0 0 0 0 0 0 0 0 0 0
0 0 0 0 0 0 0 0 0 0 0 0 0 0 0 0 0 0 0 0 0 0 0 0 0 0 0 0 0 0 0 0 0 0 0 0 0 0 0 0 0 0 0 0 0 0 0 0 0
0 0 0 0 0 0 0 0 0 0 0 0 0 0 0 0 0 0 0 0 0 0 0 0 0 0 0 0 0 0 0 0 0 0 0 0 0 0 0 0 0 0 0 0 0 0 0 0 0
0 0 0 0 0 0 0 0 0 0 0 0 0 0 0 0 0 0 0 0 0 0 0 0 0 0 0 0 0 0 0 0 0 0 0 0 0 0 0 0 0 0 0 0 0 0 0 0 0
0 0 0 0 0 0 0 0 0 0 0 0 0 0 0 0 0 0 0 0 0 0 0 0 0 0 0 0 0 0 0 0 0 0 0 0 0 0 0 0 -0 0 0 0 0 0 0 0 0
0 0 0 0 0 0 0 0 0 0 0 0 0 0 0 0 0 0 0 0 0 0 0 0 0 0 0 0 0 0 0 0 0 0 0 0 0 0 0 0 -0 -0 0 0 0 0 0 0 0
0 0 0 0 0 0 0 0 0 0 0 0 0 0 0 0 0 0 0 0 0 0 0 0 0 0 0 0 0 0 0 0 0 0 0 0 0 0 0 -0 -0 -0 0 0 0 0 0 0 0
0 0 0 0 0 0 0 0 0 0 0 0 0 0 0 0 0 0 0 0 0 0 0 0 0 0 0 0 0 0 0 0 0 0 0 0 0 0 0 -0 -0 -0 0 0 0 0 0 0 0
0 0 0 0 0 -0 0 0 0 0 0 0 0 0 0 0 0 0 0 0 0 0 0 0 0 0 0 0 0 0 0 0 0 0 0 0 0 0 -0 -0 -0 0 0 0 0 0 0 0 0
0 0 0 0 0 -0 -0 0 -0 0 0 0 0 0 0 0 0 0 0 0 0 0 0 0 0 0 0 0 0 0 0 0 0 0 0 0 0 0 -0 -0 -0 -0 0 0 0 0 0 0 0
0 0 0 -0 0 -0 -0 -0 0 0 0 0 0 0 0 0 0 0 0 0 0 0 0 0 0 0 0 0 0 0 0 0 0 0 0 -0 -0 0 0 -0 -0 -0 0 0 0 0 0 0 0
0 0 0 0 0 -0 -0 -0 -0 0 0 0 0 0 0 0 0 0 0 0 0 0 0 0 0 0 0 0 0 0 0 0 0 0 0 -0 0 -0 -0 -0 -0 -0 0 0 0 0 0 0 0
0 0 0 0 0 0 0 0 -0 0 0 0 0 0 0 0 0 0 0 0 0 0 0 0 0 0 0 0 0 0 0 0 0 -0 -0 -0 -0 0 -0 0 0 -0 0 0 0 0 0 0 0
0 0 0 0 0 0 0 0 -0 0 0 0 0 0 0 0 0 0 0 0 0 0 0 0 0 0 0 0 0 0 0 0 0 -0 -0 -0 -0 -0 -0 -0 0 0 0 0 0 0 0 0 0
0 0 0 0 0 0 0 0 0 0 0 0 0 0 0 0 0 0 0 0 0 0 0 0 0 0 0 0 0 0 0 0 0 0 -0 -0 -0 -0 -0 -0 0 -0 -0 0 0 0 0 0 0
0 0 0 0 0 0 0 0 0 0 0 0 0 0 0 0 0 0 0 0 0 0 0 0 0 0 0 0 0 0 0 0 0 0 0 0 -0 -0 -0 -0 0 -0 0 0 0 0 0 0 0
0 0 0 0 0 0 0 0 0 0 0 0 0 0 0 0 0 0 0 0 0 0 0 0 0 0 0 0 0 0 0 0 0 0 0 0 0 -0 -0 0 0 -0 -0 0 0 0 0 0 0
0 0 0 0 0 0 0 0 0 0 -0 0 0 0 0 0 0 0 0 0 0 0 0 0 0 0 0 0 0 0 0 0 0 0 0 0 -0 -0 0 0 0 -0 -0 -0 -0 0 0 0 0
0 0 0 0 0 0 0 0 0 0 0 0 0 0 0 0 0 0 0 0 0 0 0 0 0 0 0 0 0 0 0 0 0 0 0 0 0 -0 -0 -0 -0 0 -0 -0 -0 -0 -0 0 0
0 0 0 0 0 0 0 0 0 0 0 0 -0 0 0 0 0 0 0 0 0 0 0 0 0 0 0 0 0 0 0 0 0 0 0 0 0 0 0 -0 0 0 -0 -0 -0 -0 -0 -0 -0
Wind_Speed_500mb
5 7 8 1 7 9 8 12 4 7 7 4 12 13 9 6 4 7 31 29 24 22 17 17 18 17 18 20 20 21 23 25 28 29 31 33 34 35 32 28 30 33 34 34 35 37 38 42 45
6 9 7 1 7 3 11 9 8 5 10 14 10 7 6 2 3 13 37 36 30 27 19 15 15 17 18 20 24 27 30 32 35 37 38 41 42 42 40 39 37 36 38 40 40 41 41 40 43
11 15 6 6 6 9 7 5 13 6 12 10 6 2 1 9 5 11 17 29 30 24 17 14 15 17 21 25 30 33 33 32 30 30 31 33 36 41 45 45 47 44 43 43 45 45 46 46 46
15 10 4 6 13 16 7 6 16 14 6 7 7 4 5 11 7 10 13 20 25 23 19 17 18 21 26 29 30 29 28 28 30 32 33 34 35 36 38 43 50 53 52 47 50 50 50 50 50
13 5 1 4 14 14 5 14 14 8 9 14 13 5 4 18 20 17 15 20 22 22 18 17 20 24 27 27 28 27 28 31 34 36 37 37 38 39 41 43 47 52 59 58 53 54 54 54 52
2 3 4 7 13 12 6 12 13 3 4 9 14 5 6 16 22 20 21 22 22 23 18 20 21 23 27 27 26 28 31 35 38 40 41 43 45 45 46 47 50 51 56 66 59 54 57 56 55
6 6 9 9 13 10 3 7 6 3 7 12 11 11 8 24 22 21 21 23 22 23 21 22 23 23 26 27 26 29 33 37 39 44 45 46 47 47 49 52 55 56 56 60 68 65 53 59 58
3 5 6 8 12 9 3 2 2 3 3 6 17 10 8 26 25 20 21 21 20 21 23 24 25 27 29 29 32 35 38 44 49 52 54 52 51 48 43 41 45 49 51 55 57 65 67 57 61
5 4 6 7 7 2 6 2 2 3 9 8 14 13 16 15 23 24 25 24 24 24 24 24 27 30 29 30 35 39 44 50 53 53 50 46 40 34 32 31 30 34 41 49 55 58 65 61 63
7 7 12 3 3 3 9 4 6 7 10 13 24 27 33 30 32 31 30 26 24 23 24 26 28 27 30 32 34 39 46 50 48 46 41 33 28 27 28 24 22 20 27 33 41 52 64 60 48
9 11 4 2 2 4 7 15 8 7 14 36 31 17 41 43 40 36 33 30 21 15 22 29 30 31 33 33 36 42 48 43 39 34 28 20 23 26 22 23 25 24 13 13 18 35 47 52 43
6 19 22 8 4 5 5 13 14 27 41 19 16 28 24 50 52 38 31 28 22 25 27 31 38 33 33 34 39 45 43 36 32 29 25 21 25 29 31 22 21 27 12 8 4 11 28 36 45
10 9 17 16 19 17 19 22 20 49 60 51 48 31 37 34 38 34 28 25 25 34 37 40 36 31 32 35 40 42 35 32 31 27 19 22 24 29 30 25 20 24 10 8 13 17 31 33 43
4 11 26 23 29 18 10 9 4 27 17 19 24 49 44 42 40 35 33 30 35 39 39 38 32 30 32 35 39 34 31 30 25 22 20 17 23 25 22 22 14 21 10 15 18 21 38 51 49
7 9 14 16 16 7 5 14 19 31 20 24 22 21 35 48 39 42 36 34 38 39 39 34 28 27 31 34 32 30 29 24 21 20 21 18 20 24 17 18 12 8 17 21 24 39 46 61 77
5 3 8 5 13 4 2 15 10 14 23 28 27 28 29 37 46 38 37 35 41 39 35 25 24 26 29 31 26 26 24 23 18 16 20 19 21 19 19 13 7 15 26 18 41 57 67 85 86
5 4 7 7 11 3 9 15 14 9 15 32 39 36 37 38 42 35 39 42 42 37 30 26 23 23 27 24 23 24 22 21 16 14 21 19 14 15 7 6 8 27 19 10 56 66 66 85 71
9 5 5 11 5 12 9 35 30 57 54 58 59 58 51 54 48 41 47 46 43 37 30 25 19 21 22 17 19 19 16 16 16 17 22 17 8 4 8 10 33 41 16 49 64 62 79 79 74
6 5 9 9 5 8 14 28 36 40 42 39 50 56 57 58 49 50 53 50 46 37 29 22 15 18 16 10 9 14 18 19 17 19 21 8 11 15 15 28 53 31 30 69 64 83 76 69 69
10 7 10 9 4 8 11 35 43 35 30 35 38 25 33 56 55 58 57 50 43 33 27 19 13 14 11 8 9 16 22 24 21 20 18 12 19 19 23 41 48 28 30 65 72 69 63 71 79
7 10 8 13 8 8 13 17 13 10 8 10 9 7 0 39 67 65 60 49 39 32 26 17 11 10 5 5 7 13 16 12 10 16 19 24 27 30 33 41 31 20 60 65 59 57 63 87 76
8 8 12 5 6 6 6 11 13 18 17 9 19 16 14 20 60 65 60 48 36 31 26 17 11 7 4 2 5 6 12 19 15 14 20 32 34 27 33 38 25 39 63 50 63 57 68 87 80
11 3 8 6 5 5 6 5 18 11 16 10 15 24 21 24 48 61 54 42 33 33 26 18 11 7 6 4 7 7 11 21 14 20 29 31 26 24 33 27 39 56 44 53 49 42 63 71 75
14 8 10 8 4 3 11 12 12 9 9 4 5 21 24 27 37 49 43 38 36 35 27 19 11 9 9 8 10 11 14 20 21 25 32 28 24 25 36 43 42 45 48 42 47 44 44 57 64
4 11 3 8 4 11 2 7 21 10 14 13 17 29 28 29 41 50 48 44 42 37 29 20 14 12 13 11 16 17 16 22 24 26 30 30 24 25 26 31 37 35 49 51 50 39 37 58 55
13 14 10 13 8 6 5 13 14 13 3 9 22 28 29 34 44 49 45 44 43 37 30 22 16 15 16 14 18 23 19 25 30 24 20 22 20 21 30 34 24 37 39 43 48 40 41 55 57
12 11 9 7 4 6 9 14 18 4 3 4 17 28 34 39 46 47 44 46 44 39 30 23 18 17 18 19 20 23 26 26 32 30 27 24 26 21 30 34 29 32 33 33 38 45 45 53 55
6 5 4 4 4 9 9 9 12 12 12 13 15 29 39 41 45 46 46 46 43 36 30 26 21 18 18 25 23 24 29 27 29 32 33 26 26 27 27 30 25 31 29 24 33 45 53 53 58
5 6 8 6 9 9 2 11 10 7 3 14 18 39 42 46 49 47 46 45 41 37 36 29 25 21 21 27 29 27 29 30 30 33 37 27 28 32 33 35 36 35 33 27 25 40 40 46 64
2 11 12 9 8 7 5 11 10 9 10 9 14 32 38 41 44 45 44 45 47 45 40 34 28 25 23 23 30 32 32 33 33 36 36 31 33 35 41 42 41 37 29 26 30 34 46 46 59
Wind_Direction_500mb
217 202 172 99 51 68 265 265 250 96 71 91 63 69 110 94 146 198 161 189 198 209 219 224 220 232 242 253 261 267 273 276 277 277 276 274 271 263 254 248 248 245 239 236 230 226 226 225 224
187 166 137 327 93 66 272 238 85 8 126 111 85 52 42 122 146 164 166 191 212 222 225 218 220 234 246 261 269 272 277 280 280 278 276 274 271 267 261 251 247 244 242 237 234 231 228 226 231
171 169 133 129 167 187 227 119 150 109 92 98 102 62 301 158 181 183 180 189 204 224 232 220 229 249 265 272 277 282 284 286 287 287 284 280 276 271 266 259 254 251 248 244 238 233 230 227 228
144 160 214 109 247 265 256 181 146 142 115 114 85 121 139 164 196 206 185 196 211 227 231 227 248 260 269 278 284 289 294 295 296 297 294 290 287 282 275 265 254 247 243 245 241 237 233 230 227
138 155 76 217 250 262 174 178 142 144 177 177 174 241 184 196 225 235 221 214 226 234 241 244 254 269 280 286 290 294 297 300 300 300 299 297 291 283 275 269 262 252 244 239 242 236 232 230 226
153 176 68 233 251 280 159 138 126 119 189 175 167 209 218 224 223 228 226 217 228 247 250 254 262 274 284 288 292 296 300 303 303 302 300 296 290 285 278 271 263 256 247 241 235 239 232 229 226
135 106 217 253 271 294 19 10 67 177 264 210 168 154 193 210 217 230 221 217 228 248 257 266 272 278 287 288 292 296 303 304 304 305 303 298 293 286 278 270 264 257 248 243 239 231 234 229 225
235 124 268 241 236 258 270 108 108 38 280 120 193 220 203 221 217 225 218 223 235 250 262 274 283 292 293 299 302 307 312 315 315 310 306 304 297 291 282 271 267 261 249 245 239 235 231 232 224
200 56 246 259 347 35 277 84 134 240 248 234 209 230 237 209 209 217 211 224 239 253 267 278 286 290 296 303 307 317 322 318 313 313 313 314 309 303 296 293 286 274 262 248 237 228 226 231 220
146 153 227 230 168 239 302 341 283 212 251 246 241 242 253 248 238 232 233 238 244 255 275 277 283 292 301 305 313 320 316 314 317 318 320 308 309 304 301 299 290 288 281 273 249 232 225 225 224
197 207 238 248 179 312 307 310 274 239 260 244 231 259 230 236 240 240 241 244 252 257 257 269 287 295 302 308 317 318 316 319 323 319 316 313 309 317 325 317 316 285 280 249 253 234 224 223 223
226 247 258 269 262 295 296 296 294 251 248 236 245 270 261 237 237 241 246 240 225 241 245 268 281 293 303 313 319 317 319 326 323 315 301 303 310 317 316 308 315 320 284 250 278 207 205 208 207
206 260 298 272 271 259 269 254 263 271 268 264 257 260 252 240 235 244 249 235 215 230 243 260 274 293 306 313 317 318 325 324 323 318 328 327 317 313 306 310 310 317 262 245 171 198 188 189 197
210 265 278 283 263 243 242 263 5 276 271 251 248 240 244 245 250 245 238 228 221 233 249 264 277 291 304 314 319 323 324 320 317 322 319 328 318 321 317 309 295 318 185 166 172 186 176 178 170
288 310 298 247 226 232 324 285 223 266 222 248 252 252 245 245 244 242 245 235 232 236 250 260 271 292 305 317 324 325 323 320 320 318 320 318 312 304 304 305 287 288 150 157 162 171 169 152 152
240 160 334 5 117 230 151 270 284 297 225 253 260 260 255 246 245 236 232 233 231 242 250 259 276 294 310 322 326 333 331 330 325 342 345 327 313 300 312 279 239 176 158 135 159 161 160 147 145
260 234 216 298 201 130 200 269 262 255 262 270 269 259 250 240 235 229 224 224 230 243 248 260 275 298 315 329 336 344 347 351 7 353 350 334 316 310 306 187 205 174 177 89 163 157 159 150 148
192 208 295 255 226 211 230 264 269 275 273 268 273 266 246 230 229 221 216 219 228 237 245 252 276 302 322 335 354 7 17 25 19 11 359 333 11 52 126 156 151 165 152 128 161 158 155 153 152
123 177 231 275 219 249 239 275 282 282 278 273 266 261 251 232 225 211 212 218 225 231 239 245 274 304 324 339 34 41 37 50 27 25 353 8 87 103 113 143 151 145 137 150 167 153 159 156 159
247 241 266 279 173 235 275 286 287 283 270 263 268 252 253 232 201 197 205 214 224 228 227 237 267 303 321 354 43 47 44 44 28 29 24 84 108 118 134 140 146 137 131 157 160 165 166 160 156
190 192 205 220 320 280 307 294 320 304 279 235 215 223 118 203 186 190 196 208 217 221 220 229 257 296 299 21 56 63 53 46 60 41 77 101 107 110 121 142 138 155 156 169 175 176 171 160 163
214 214 197 171 54 246 44 286 298 283 289 235 227 213 188 167 186 190 193 204 214 213 214 222 247 268 239 62 102 99 45 71 67 77 104 112 111 112 138 153 167 164 164 169 167 170 173 168 160
225 104 122 135 169 5 312 76 273 301 295 273 218 211 204 194 196 192 196 206 211 208 209 217 235 230 208 166 126 105 74 96 98 110 122 119 113 114 153 163 149 165 157 180 174 174 182 178 169
146 75 42 45 92 359 236 155 282 245 229 243 190 198 200 193 192 196 199 206 209 203 207 213 225 209 196 177 148 125 110 113 130 122 130 126 120 120 144 151 154 164 176 179 182 182 188 186 184
101 90 332 349 354 223 168 108 244 251 259 215 201 200 201 198 188 191 198 204 203 203 205 210 216 203 189 182 164 150 143 133 139 134 133 136 135 145 153 158 170 166 169 182 182 182 173 178 183
183 163 172 206 204 256 46 225 249 232 261 224 217 197 193 194 192 198 205 204 200 202 204 210 213 205 191 184 180 163 157 152 151 154 155 152 152 170 170 172 160 175 179 185 194 195 183 184 194
196 203 183 111 45 62 231 277 300 150 171 116 157 177 191 193 194 200 203 201 201 204 207 213 215 210 199 194 192 177 170 167 164 165 169 172 163 162 181 179 187 184 190 201 206 200 195 192 200
149 193 104 360 202 251 271 266 236 251 242 210 202 199 198 199 202 202 201 202 204 208 211 216 217 217 208 202 200 196 182 185 181 183 173 172 169 166 173 195 176 180 177 196 201 204 197 200 199
166 217 234 150 168 193 259 258 225 259 254 226 216 212 208 204 208 204 203 205 209 212 216 218 220 220 215 205 208 208 203 191 197 189 191 185 182 177 171 182 181 180 177 188 199 208 214 207 205
276 209 180 153 218 222 164 269 355 357 9 344 235 224 219 218 216 215 211 210 214 217 219 219 220 221 216 214 209 214 214 205 199 194 200 189 190 185 184 182 194 193 191 192 187 193 198 197 206
Wind_Speed_850mb
5 7 8 1 7 9 8 12 4 7 7 4 12 13 9 6 4 7 31 29 24 22 17 17 18 17 18 20 20 21 23 25 28 29 31 33 34 35 32 28 30 33 34 34 35 37 38 42 45
6 9 7 1 7 3 11 9 8 5 10 14 10 7 6 2 3 13 37 36 30 27 19 15 15 17 18 20 24 27 30 32 35 37 38 41 42 42 40 39 37 36 38 40 40 41 41 40 43
11 15 6 6 6 9 7 5 13 6 12 10 6 2 1 9 5 11 17 29 30 24 17 14 15 17 21 25 30 33 33 32 30 30 31 33 36 41 45 45 47 44 43 43 45 45 46 46 46
15 10 4 6 13 16 7 6 16 14 6 7 7 4 5 11 7 10 13 20 25 23 19 17 18 21 26 29 30 29 28 28 30 32 33 34 35 36 38 43 50 53 52 47 50 50 50 50 50
13 5 1 4 14 14 5 14 14 8 9 14 13 5 4 18 20 17 15 20 22 22 18 17 20 24 27 27 28 27 28 31 34 36 37 37 38 39 41 43 47 52 59 58 53 54 54 54 52
2 3 4 7 13 12 6 12 13 3 4 9 14 5 6 16 22 20 21 22 22 23 18 20 21 23 27 27 26 28 31 35 38 40 41 43 45 45 46 47 50 51 56 66 59 54 57 56 55
6 6 9 9 13 10 3 7 6 3 7 12 11 11 8 24 22 21 21 23 22 23 21 22 23 23 26 27 26 29 33 37 39 44 45 46 47 47 49 52 55 56 56 60 68 65 53 59 58
3 5 6 8 12 9 3 2 2 3 3 6 17 10 8 26 25 20 21 21 20 21 23 24 25 27 29 29 32 35 38 44 49 52 54 52 51 48 43 41 45 49 51 55 57 65 67 57 61
5 4 6 7 7 2 6 2 2 3 9 8 14 13 16 15 23 24 25 24 24 24 24 24 27 30 29 30 35 39 44 50 53 53 50 46 40 34 32 31 30 34 41 49 55 58 65 61 63
7 7 12 3 3 3 9 4 6 7 10 13 24 27 33 30 32 31 30 26 24 23 24 26 28 27 30 32 34 39 46 50 48 46 41 33 28 27 28 24 22 20 27 33 41 52 64 60 48
9 11 4 2 2 4 7 15 8 7 14 36 31 17 41 43 40 36 33 30 21 15 22 29 30 31 33 33 36 42 48 43 39 34 28 20 23 26 22 23 25 24 13 13 18 35 47 52 43
6 19 22 8 4 5 5 13 14 27 41 19 16 28 24 50 52 38 31 28 22 25 27 31 38 33 33 34 39 45 43 36 32 29 25 21 25 29 31 22 21 27 12 8 4 11 28 36 45
10 9 17 16 19 17 19 22 20 49 60 51 48 31 37 34 38 34 28 25 25 34 37 40 36 31 32 35 40 42 35 32 31 27 19 22 24 29 30 25 20 24 10 8 13 17 31 33 43
4 11 26 23 29 18 10 9 4 27 17 19 24 49 44 42 40 35 33 30 35 39 39 38 32 30 32 35 39 34 31 30 25 22 20 17 23 25 22 22 14 21 10 15 18 21 38 51 49
7 9 14 16 16 7 5 14 19 31 20 24 22 21 35 48 39 42 36 34 38 39 39 34 28 27 31 34 32 30 29 24 21 20 21 18 20 24 17 18 12 8 17 21 24 39 46 61 77
5 3 8 5 13 4 2 15 10 14 23 28 27 28 29 37 46 38 37 35 41 39 35 25 24 26 29 31 26 26 24 23 18 16 20 19 21 19 19 13 7 15 26 18 41 57 67 85 86
5 4 7 7 11 3 9 15 14 9 15 32 39 36 37 38 42 35 39 42 42 37 30 26 23 23 27 24 23 24 22 21 16 14 21 19 14 15 7 6 8 27 19 10 56 66 66 85 71
9 5 5 11 5 12 9 35 30 57 54 58 59 58 51 54 48 41 47 46 43 37 30 25 19 21 22 17 19 19 16 16 16 17 22 17 8 4 8 10 33 41 16 49 64 62 79 79 74
6 5 9 9 5 8 14 28 36 40 42 39 50 56 57 58 49 50 53 50 46 37 29 22 15 18 16 10 9 14 18 19 17 19 21 8 11 15 15 28 53 31 30 69 64 83 76 69 69
10 7 10 9 4 8 11 35 43 35 30 35 38 25 33 56 55 58 57 50 43 33 27 19 13 14 11 8 9 16 22 24 21 20 18 12 19 19 23 41 48 28 30 65 72 69 63 71 79
7 10 8 13 8 8 13 17 13 10 8 10 9 7 0 39 67 65 60 49 39 32 26 17 11 10 5 5 7 13 16 12 10 16 19 24 27 30 33 41 31 20 60 65 59 57 63 87 76
8 8 12 5 6 6 6 11 13 18 17 9 19 16 14 20 60 65 60 48 36 31 26 17 11 7 4 2 5 6 12 19 15 14 20 32 34 27 33 38 25 39 63 50 63 57 68 87 80
11 3 8 6 5 5 6 5 18 11 16 10 15 24 21 24 48 61 54 42 33 33 26 18 11 7 6 4 7 7 11 21 14 20 29 31 26 24 33 27 39 56 44 53 49 42 63 71 75
14 8 10 8 4 3 11 12 12 9 9 4 5 21 24 27 37 49 43 38 36 35 27 19 11 9 9 8 10 11 14 20 21 25 32 28 24 25 36 43 42 45 48 42 47 44 44 57 64
4 11 3 8 4 11 2 7 21 10 14 13 17 29 28 29 41 50 48 44 42 37 29 20 14 12 13 11 16 17 16 22 24 26 30 30 24 25 26 31 37 35 49 51 50 39 37 58 55
13 14 10 13 8 6 5 13 14 13 3 9 22 28 29 34 44 49 45 44 43 37 30 22 16 15 16 14 18 23 19 25 30 24 20 22 20 21 30 34 24 37 39 43 48 40 41 55 57
12 11 9 7 4 6 9 14 18 4 3 4 17 28 34 39 46 47 44 46 44 39 30 23 18 17 18 19 20 23 26 26 32 30 27 24 26 21 30 34 29 32 33 33 38 45 45 53 55
6 5 4 4 4 9 9 9 12 12 12 13 15 29 39 41 45 46 46 46 43 36 30 26 21 18 18 25 23 24 29 27 29 32 33 26 26 27 27 30 25 31 29 24 33 45 53 53 58
5 6 8 6 9 9 2 11 10 7 3 14 18 39 42 46 49 47 46 45 41 37 36 29 25 21 21 27 29 27 29 30 30 33 37 27 28 32 33 35 36 35 33 27 25 40 40 46 64
2 11 12 9 8 7 5 11 10 9 10 9 14 32 38 41 44 45 44 45 47 45 40 34 28 25 23 23 30 32 32 33 33 36 36 31 33 35 41 42 41 37 29 26 30 34 46 46 59
Wind_Direction_850mb
217 202 172 99 51 68 265 265 250 96 71 91 63 69 110 94 146 198 161 189 198 209 219 224 220 232 242 253 261 267 273 276 277 277 276 274 271 263 254 248 248 245 239 236 230 226 226 225 224
187 166 137 327 93 66 272 238 85 8 126 111 85 52 42 122 146 164 166 191 212 222 225 218 220 234 246 261 269 272 277 280 280 278 276 274 271 267 261 251 247 244 242 237 234 231 228 226 231
171 169 133 129 167 187 227 119 150 109 92 98 102 62 301 158 181 183 180 189 204 224 232 220 229 249 265 272 277 282 284 286 287 287 284 280 276 271 266 259 254 251 248 244 238 233 230 227 228
144 160 214 109 247 265 256 181 146 142 115 114 85 121 139 164 196 206 185 196 211 227 231 227 248 260 269 278 284 289 294 295 296 297 294 290 287 282 275 265 254 247 243 245 241 237 233 230 227
138 155 76 217 250 262 174 178 142 144 177 177 174 241 184 196 225 235 221 214 226 234 241 244 254 269 280 286 290 294 297 300 300 300 299 297 291 283 275 269 262 252 244 239 242 236 232 230 226
153 176 68 233 251 280 159 138 126 119 189 175 167 209 218 224 223 228 226 217 228 247 250 254 262 274 284 288 292 296 300 303 303 302 300 296 290 285 278 271 263 256 247 241 235 239 232 229 226
135 106 217 253 271 294 19 10 67 177 264 210 168 154 193 210 217 230 221 217 228 248 257 266 272 278 287 288 292 296 303 304 304 305 303 298 293 286 278 270 264 257 248 243 239 231 234 229 225
235 124 268 241 236 258 270 108 108 38 280 120 193 220 203 221 217 225 218 223 235 250 262 274 283 292 293 299 302 307 312 315 315 310 306 304 297 291 282 271 267 261 249 245 239 235 231 232 224
200 56 246 259 347 35 277 84 134 240 248 234 209 230 237 209 209 217 211 224 239 253 267 278 286 290 296 303 307 317 322 318 313 313 313 314 309 303 296 293 286 274 262 248 237 228 226 231 220
146 153 227 230 168 239 302 341 283 212 251 246 241 242 253 248 238 232 233 238 244 255 275 277 283 292 301 305 313 320 316 314 317 318 320 308 309 304 301 299 290 288 281 273 249 232 225 225 224
197 207 238 248 179 312 307 310 274 239 260 244 231 259 230 236 240 240 241 244 252 257 257 269 287 295 302 308 317 318 316 319 323 319 316 313 309 317 325 317 316 285 280 249 253 234 224 223 223
226 247 258 269 262 295 296 296 294 251 248 236 245 270 261 237 237 241 246 240 225 241 245 268 281 293 303 313 319 317 319 326 323 315 301 303 310 317 316 308 315 320 284 250 278 207 205 208 207
206 260 298 272 271 259 269 254 263 271 268 264 257 260 252 240 235 244 249 235 215 230 243 260 274 293 306 313 317 318 325 324 323 318 328 327 317 313 306 310 310 317 262 245 171 198 188 189 197
210 265 278 283 263 243 242 263 5 276 271 251 248 240 244 245 250 245 238 228 221 233 249 264 277 291 304 314 319 323 324 320 317 322 319 328 318 321 317 309 295 318 185 166 172 186 176 178 170
288 310 298 247 226 232 324 285 223 266 222 248 252 252 245 245 244 242 245 235 232 236 250 260 271 292 305 317 324 325 323 320 320 318 320 318 312 304 304 305 287 288 150 157 162 171 169 152 152
240 160 334 5 117 230 151 270 284 297 225 253 260 260 255 246 245 236 232 233 231 242 250 259 276 294 310 322 326 333 331 330 325 342 345 327 313 300 312 279 239 176 158 135 159 161 160 147 145
260 234 216 298 201 130 200 269 262 255 262 270 269 259 250 240 235 229 224 224 230 243 248 260 275 298 315 329 336 344 347 351 7 353 350 334 316 310 306 187 205 174 177 89 163 157 159 150 148
192 208 295 255 226 211 230 264 269 275 273 268 273 266 246 230 229 221 216 219 228 237 245 252 276 302 322 335 354 7 17 25 19 11 359 333 11 52 126 156 151 165 152 128 161 158 155 153 152
123 177 231 275 219 249 239 275 282 282 278 273 266 261 251 232 225 211 212 218 225 231 239 245 274 304 324 339 34 41 37 50 27 25 353 8 87 103 113 143 151 145 137 150 167 153 159 156 159
247 241 266 279 173 235 275 286 287 283 270 263 268 252 253 232 201 197 205 214 224 228 227 237 267 303 321 354 43 47 44 44 28 29 24 84 108 118 134 140 146 137 131 157 160 165 166 160 156
190 192 205 220 320 280 307 294 320 304 279 235 215 223 118 203 186 190 196 208 217 221 220 229 257 296 299 21 56 63 53 46 60 41 77 101 107 110 121 142 138 155 156 169 175 176 171 160 163
214 214 197 171 54 246 44 286 298 283 289 235 227 213 188 167 186 190 193 204 214 213 214 222 247 268 239 62 102 99 45 71 67 77 104 112 111 112 138 153 167 164 164 169 167 170 173 168 160
225 104 122 135 169 5 312 76 273 301 295 273 218 211 204 194 196 192 196 206 211 208 209 217 235 230 208 166 126 105 74 96 98 110 122 119 113 114 153 163 149 165 157 180 174 174 182 178 169
146 75 42 45 92 359 236 155 282 245 229 243 190 198 200 193 192 196 199 206 209 203 207 213 225 209 196 177 148 125 110 113 130 122 130 126 120 120 144 151 154 164 176 179 182 182 188 186 184
101 90 332 349 354 223 168 108 244 251 259 215 201 200 201 198 188 191 198 204 203 203 205 210 216 203 189 182 164 150 143 133 139 134 133 136 135 145 153 158 170 166 169 182 182 182 173 178 183
183 163 172 206 204 256 46 225 249 232 261 224 217 197 193 194 192 198 205 204 200 202 204 210 213 205 191 184 180 163 157 152 151 154 155 152 152 170 170 172 160 175 179 185 194 195 183 184 194
196 203 183 111 45 62 231 277 300 150 171 116 157 177 191 193 194 200 203 201 201 204 207 213 215 210 199 194 192 177 170 167 164 165 169 172 163 162 181 179 187 184 190 201 206 200 195 192 200
149 193 104 360 202 251 271 266 236 251 242 210 202 199 198 199 202 202 201 202 204 208 211 216 217 217 208 202 200 196 182 185 181 183 173 172 169 166 173 195 176 180 177 196 201 204 197 200 199
166 217 234 150 168 193 259 258 225 259 254 226 216 212 208 204 208 204 203 205 209 212 216 218 220 220 215 205 208 208 203 191 197 189 191 185 182 177 171 182 181 180 177 188 199 208 214 207 205
276 209 180 153 218 222 164 269 355 357 9 344 235 224 219 218 216 215 211 210 214 217 219 219 220 221 216 214 209 214 214 205 199 194 200 189 190 185 184 182 194 193 191 192 187 193 198 197 206